Location: Aachen
(51.0966°N, 9.5142°E)
Time: 01:46:16
(UTC+02:00)

ISS - Visible Passes

Search period start: 23 September 2020 00:00
Search period end: 03 October 2020 00:00
Orbit: 419 x 420 km, 51.6° (Epoch: 23 September)

Date Brightness Start Highest point End Pass type
(mag) Time Alt. Az. Time Alt. Az. Time Alt. Az.
23 Sep -3.8 20:56:00 10° WSW 20:59:23 89° S 21:00:25 42° E visible
23 Sep -0.7 22:32:53 10° W 22:33:23 14° W 22:33:23 14° W visible
24 Sep -3.8 20:08:37 10° WSW 20:11:59 76° SSE 20:14:50 14° E visible
24 Sep -2.5 21:45:27 10° W 21:47:47 41° WNW 21:47:47 41° WNW visible
25 Sep -3.8 20:58:01 10° W 21:01:25 79° N 21:02:09 51° ENE visible
25 Sep -0.4 22:34:53 10° W 22:35:07 12° W 22:35:07 12° W visible
26 Sep -3.7 20:10:35 10° W 20:13:58 82° N 20:16:29 17° E visible
26 Sep -2.1 21:47:27 10° W 21:49:27 33° W 21:49:27 33° W visible
27 Sep -3.9 21:00:01 10° W 21:03:24 88° N 21:03:46 69° E visible
28 Sep -3.8 20:12:33 10° W 20:15:57 81° N 20:18:06 21° E visible
28 Sep -1.6 21:49:25 10° W 21:51:03 25° W 21:51:03 25° W visible
29 Sep -3.7 21:01:56 10° W 21:05:17 64° SSW 21:05:23 63° S visible
30 Sep -3.8 20:14:27 10° W 20:17:50 79° SSW 20:19:43 24° ESE visible
30 Sep -1.1 21:51:31 10° W 21:52:41 17° WSW 21:52:41 17° WSW visible
01 Oct -3.7 19:26:59 10° W 19:30:22 88° N 19:33:45 10° E visible
01 Oct -2.7 21:03:53 10° W 21:07:00 35° SSW 21:07:03 35° SSW visible
02 Oct -3.1 20:16:20 10° W 20:19:37 48° SSW 20:21:28 22° SE visible
02 Oct -0.6 21:54:20 10° WSW 21:54:26 10° WSW 21:54:26 10° WSW visible
